EHI
0 0 0 0 0 0 1 2 4 5 6 6 5 4 5 8 11 16 16 12 11 12 14 15 14 11 12 14 14 12 12 13 13 14 15 14 12 11 12 13 12 11 10 9
0 0 0 0 0 0 1 2 3 4 5 5 5 5 6 9 12 16 15 13 13 13 13 13 13 10 11 12 11 10 11 12 13 14 15 15 14 13 13 13 12 11 11 10
0 0 0 0 0 0 0 1 1 2 3 4 5 6 7 9 13 14 12 10 11 11 12 12 12 11 11 11 10 10 10 10 11 12 14 16 16 16 15 14 13 12 11 10
0 0 0 0 0 0 0 1 1 1 2 3 4 4 5 7 9 9 7 7 8 11 13 13 13 13 14 12 10 9 8 7 8 10 13 14 16 17 17 15 13 11 8 8
0 0 0 0 0 0 0 1 2 2 3 3 3 3 4 5 6 6 6 7 9 12 14 15 15 14 14 12 8 6 5 5 6 9 12 13 13 15 16 13 11 9 7 6
0 0 0 0 0 0 0 0 1 2 2 2 2 3 3 5 6 7 8 9 12 15 16 16 16 15 12 9 5 4 4 4 5 8 11 11 11 12 13 11 9 6 6 6
0 0 0 0 0 0 0 0 0 1 1 1 1 1 3 4 6 8 10 12 14 15 14 14 14 14 11 6 3 3 4 4 5 7 9 10 9 10 11 10 8 5 4 4
0 0 0 0 0 0 0 0 0 0 0 0 0 1 2 4 6 8 11 13 13 13 11 11 11 11 9 6 4 4 5 6 6 7 8 8 8 8 9 9 7 4 3 3
0 0 0 0 0 0 0 0 0 0 1 0 1 2 3 4 6 8 11 12 12 10 8 7 8 9 9 7 6 7 7 7 6 7 7 7 7 7 8 8 6 4 3 2
0 0 0 1 1 0 0 0 0 0 0 0 1 3 5 5 7 9 10 11 10 8 7 7 8 9 10 9 9 8 8 7 6 6 6 6 6 6 6 6 5 4 3 2
0 0 1 2 1 0 0 0 0 0 0 0 1 3 5 5 7 8 9 10 8 7 7 8 8 9 10 10 9 8 7 7 6 5 4 4 4 4 4 4 4 3 2 2
0 0 1 2 2 1 0 0 0 1 0 0 1 2 3 4 6 8 9 10 9 7 7 8 8 9 9 9 7 7 6 6 5 4 3 3 3 3 3 3 2 1 1 2
0 1 1 2 3 2 1 0 0 0 0 0 1 1 1 2 4 6 8 9 9 8 7 8 9 9 9 7 7 6 6 5 4 3 3 3 3 3 3 3 2 1 0 1
1 2 3 3 3 3 2 0 0 0 0 2 3 2 2 3 4 5 7 9 9 9 9 9 9 8 6 6 6 5 4 4 3 3 3 3 3 3 3 3 3 2 1 0
3 3 3 3 2 2 1 0 0 0 1 3 5 4 3 4 4 4 6 7 8 8 7 7 6 4 3 3 4 4 3 3 3 3 3 2 2 3 3 3 3 3 1 0
3 3 2 1 1 1 0 0 0 0 1 3 5 5 4 4 4 3 3 4 4 4 3 2 2 1 1 2 3 3 3 3 3 3 2 1 1 1 2 2 2 2 1 1
2 2 1 0 0 0 0 0 0 0 1 2 2 3 4 4 3 2 1 1 1 1 0 0 1 1 0 1 1 2 2 2 2 2 2 1 0 0 1 1 1 1 1 0
1 1 0 0 0 0 0 0 0 0 1 1 0 1 3 3 2 1 0 0 0 0 0 0 1 1 0 0 0 1 1 1 1 1 1 1 0 0 0 0 0 0 0 0
0 0 0 0 0 0 0 0 0 0 0 0 0 1 2 2 1 1 0 0 0 0 0 0 1 1 0 0 0 0 0 0 0 0 0 0 0 0 0 0 0 0 0 0
0 0 0 0 0 0 0 0 0 1 1 0 0 0 1 1 1 0 0 0 0 1 1 0 0 0 0 0 0 0 0 0 0 0 0 0 0 0 0 0 0 0 0 0
0 0 0 0 0 0 0 0 0 1 1 0 0 0 0 1 0 0 0 0 1 2 1 0 0 0 0 0 0 0 0 0 0 0 0 0 0 0 0 0 0 0 0 0
0 0 0 0 0 0 0 0 0 1 1 1 1 0 0 0 0 0 0 0 1 1 1 0 0 0 0 0 0 0 0 0 0 0 0 0 0 0 0 0 0 0 0 0
0 0 0 0 0 0 0 0 0 0 0 1 1 0 0 0 0 0 0 0 0 0 0 0 0 0 0 0 0 0 0 0 0 0 1 1 1 0 0 0 0 0 0 0
0 0 0 0 0 0 0 0 0 0 0 1 1 0 0 0 0 0 0 0 0 0 0 0 0 0 0 0 0 0 0 0 0 0 1 1 1 0 0 0 0 0 0 0
0 0 0 1 0 0 0 0 0 0 0 0 0 0 1 0 0 0 0 0 0 0 0 0 0 0 0 0 0 0 0 0 0 0 0 0 0 0 0 0 0 0 0 0
0 0 0 1 0 0 0 0 0 0 0 0 0 0 0 0 0 0 0 0 0 0 0 0 0 0 0 0 0 0 0 0 0 0 0 0 0 0 0 0 0 0 0 0
0 0 1 1 1 0 0 0 0 0 0 0 0 0 0 0 0 0 0 0 0 0 0 0 0 0 0 0 0 0 0 0 0 0 0 0 0 0 0 0 0 0 0 0
Wind_Speed
2 2 1 2 3 2 1 5 6 5 4 4 5 6 6 5 5 4 5 5 5 4 3 3 3 2 2 2 1 2 2 2 3 2 2 1 1 1 1 1 1 1 1 1
4 3 4 5 5 3 2 2 4 4 2 4 3 4 4 5 6 6 6 5 5 4 4 3 3 3 2 2 1 2 2 1 1 1 1 1 2 1 1 1 1 0 1 2
2 4 5 4 4 2 3 1 4 4 5 3 4 4 5 5 6 6 6 5 5 5 4 3 3 3 3 2 2 2 2 1 1 1 1 2 2 1 1 2 1 2 3 2
1 4 1 6 3 4 6 4 2 3 3 4 5 5 4 5 7 6 5 5 4 4 3 2 2 2 2 3 3 3 2 1 0 1 1 1 1 1 2 2 2 3 3 2
3 2 3 4 4 1 3 2 2 3 3 3 4 5 3 1 4 6 5 5 5 4 4 3 3 3 3 2 2 2 1 0 0 1 0 1 1 3 2 2 2 2 2 2
4 3 3 4 5 1 6 2 4 1 3 3 4 3 2 2 3 4 4 3 3 3 3 3 3 3 4 2 1 1 1 1 0 0 1 1 2 2 2 2 2 1 1 2
3 2 4 5 4 3 3 5 3 0 2 2 3 5 4 3 3 3 4 4 4 4 3 3 2 4 3 2 2 2 1 0 0 1 1 2 1 2 1 1 0 0 0 2
3 2 5 5 2 2 6 4 2 1 1 2 2 2 3 4 4 4 3 3 4 4 2 1 3 4 2 1 1 1 1 0 1 1 2 1 1 1 1 1 1 1 0 1
6 6 6 2 3 3 3 3 2 2 2 4 3 2 2 3 3 3 2 2 3 4 3 1 2 4 3 2 1 1 1 0 1 2 2 1 0 1 0 1 1 1 1 1
1 1 1 1 2 2 2 3 3 3 4 4 4 3 2 2 2 2 2 2 2 3 3 1 1 1 2 2 1 2 1 1 1 1 2 2 1 1 1 1 1 2 2 2
1 1 2 3 2 1 2 2 3 3 2 3 5 4 3 2 2 2 2 1 2 3 3 2 1 1 1 1 1 1 1 1 1 1 1 1 1 1 1 2 3 3 3 3
4 5 3 3 2 1 2 1 2 3 3 3 3 4 4 3 2 2 2 2 2 2 2 2 1 1 1 1 1 1 1 1 1 1 1 1 0 2 4 2 1 2 3 3
4 3 4 3 0 2 2 2 2 3 3 2 2 3 3 2 2 2 2 2 2 3 2 2 1 1 1 1 1 1 1 2 1 1 1 1 1 1 1 4 4 3 3 3
2 3 1 1 1 1 2 3 3 3 3 3 3 3 3 3 2 2 1 1 2 2 2 1 1 1 2 1 0 1 1 2 2 2 2 2 2 2 2 1 1 3 3 4
2 3 4 2 1 1 2 3 4 3 3 2 2 3 3 3 2 2 1 1 2 2 1 1 1 2 2 1 1 1 2 2 2 2 2 2 2 1 1 2 1 1 1 2
2 2 3 2 2 1 2 2 2 1 1 2 2 2 2 2 2 1 1 2 2 2 2 2 2 3 2 1 1 1 2 3 2 1 1 1 1 1 1 1 1 1 1 1
2 2 3 3 3 3 2 2 3 2 2 2 2 2 2 2 1 0 0 0 1 3 3 3 3 3 2 2 2 2 2 2 3 1 2 2 2 2 2 2 2 2 2 2
4 4 5 5 5 3 2 2 2 3 2 2 2 2 2 1 1 2 2 1 0 1 2 3 3 2 2 2 2 2 2 2 2 2 2 2 2 2 2 2 2 2 2 1
2 3 4 4 4 4 3 3 2 2 2 2 2 1 2 2 2 2 1 1 1 2 4 4 4 3 3 3 3 2 2 2 2 2 2 2 2 1 2 2 2 2 2 1
1 1 2 3 2 3 3 2 2 2 2 2 2 1 1 2 2 2 2 2 3 4 4 4 4 3 3 3 3 2 2 2 2 1 1 1 1 2 2 2 2 2 2 1
2 2 2 2 1 1 2 2 2 2 2 2 3 3 3 3 2 2 1 2 4 3 3 4 3 3 3 2 3 2 2 2 1 1 1 1 1 1 1 2 2 2 2 1
1 1 1 0 1 1 1 1 2 2 2 2 3 3 3 2 2 2 2 3 4 4 2 2 2 3 3 2 1 1 1 1 1 1 1 1 1 1 2 1 1 1 1 1
0 0 1 2 2 2 1 1 2 2 2 2 3 3 3 3 2 2 3 3 3 3 2 2 3 3 3 1 1 1 1 1 1 1 1 1 1 1 1 1 1 1 1 1
1 1 1 2 1 1 1 1 2 1 2 2 2 2 2 2 2 3 3 3 3 2 1 2 3 3 2 1 1 1 1 1 1 1 1 1 1 1 1 1 1 1 1 2
2 1 1 0 1 1 2 2 1 1 1 1 1 2 2 2 2 2 1 1 2 1 1 2 2 2 0 0 1 1 1 2 1 1 1 1 1 1 1 1 1 1 2 2
3 2 2 2 2 2 1 1 1 1 1 1 1 1 1 1 1 1 1 1 2 2 1 1 1 2 1 1 1 2 2 2 1 2 2 1 1 1 1 1 1 1 1 2
1 1 1 1 1 1 1 1 1 1 2 2 1 1 1 1 1 1 1 1 1 1 2 2 2 2 2 2 2 2 2 2 2 2 2 2 1 2 2 2 1 1 0 1
Wind_Direction
210 217 65 2 347 353 108 175 169 193 184 211 189 179 185 173 156 146 135 136 142 152 160 157 146 142 152 168 164 156 163 181 201 207 199 199 213 214 203 195 184 220 275 311
353 6 32 16 355 13 40 88 134 126 208 224 180 136 140 151 152 157 145 145 150 159 162 160 155 151 142 150 161 145 146 190 200 181 195 217 221 201 173 209 234 219 231 236
303 329 33 349 321 39 51 68 147 167 211 171 114 137 161 159 146 148 153 158 160 165 171 178 177 160 152 158 117 98 98 104 161 189 214 235 221 183 199 211 204 228 236 210
89 46 203 248 292 82 79 36 67 137 162 155 161 166 160 153 146 148 158 169 170 166 155 163 155 138 131 110 91 84 75 65 72 192 212 236 227 231 235 227 225 232 231 205
105 135 269 302 332 30 110 4 354 106 121 127 126 83 37 96 149 160 171 181 177 167 159 151 146 139 111 98 97 98 98 70 201 171 190 245 251 245 235 235 259 256 224 195
115 138 223 263 294 315 98 6 316 86 125 136 110 94 246 205 134 128 141 150 153 144 132 138 150 132 123 127 128 148 195 218 272 224 201 222 236 239 239 226 236 236 198 210
145 186 249 270 291 44 106 232 272 217 176 153 165 185 198 163 128 123 130 138 134 129 135 153 149 131 136 152 194 214 203 163 335 299 256 235 241 249 225 202 157 155 216 261
140 164 246 284 34 129 206 214 171 160 149 122 132 132 139 140 137 129 121 128 128 121 120 134 134 127 130 190 228 191 158 152 307 302 294 293 274 286 267 165 158 177 207 280
175 203 228 229 163 195 161 136 143 146 123 116 116 141 144 134 134 126 134 137 126 125 124 129 138 137 148 214 190 142 117 282 296 312 325 324 221 212 221 165 166 193 196 231
75 254 243 113 83 74 114 134 135 130 131 123 129 137 127 126 125 128 140 138 126 122 135 162 152 139 167 196 177 143 182 278 300 324 329 338 347 198 186 193 193 199 202 224
52 293 10 2 22 66 66 74 88 97 121 141 128 126 132 138 151 169 159 149 130 139 154 182 176 182 212 198 148 141 220 263 287 301 290 310 323 313 241 229 214 203 210 206
214 227 184 243 265 77 83 65 110 102 79 71 113 135 137 145 167 169 159 142 134 140 152 176 168 196 273 250 156 154 224 272 264 271 272 261 288 350 4 349 307 228 213 204
191 200 183 211 238 69 76 71 104 109 110 90 76 119 120 126 133 123 119 119 154 171 174 170 151 234 273 253 174 176 220 251 256 253 247 246 224 202 312 341 349 318 270 248
185 125 105 228 201 80 86 78 84 77 77 103 114 108 108 112 112 112 132 164 170 164 165 160 157 252 267 255 238 267 256 254 253 245 243 239 232 224 212 217 292 313 300 270
228 175 190 194 151 90 84 79 70 60 62 71 101 110 112 121 136 161 170 136 122 123 155 182 210 256 266 252 252 268 267 262 253 248 248 239 231 220 229 230 231 261 298 315
214 169 155 145 155 150 111 104 108 118 118 124 116 126 134 141 154 154 139 124 135 184 220 222 241 257 261 245 251 271 270 279 279 257 259 248 226 210 224 229 237 253 268 275
171 181 166 161 169 170 174 170 158 158 141 138 160 152 129 113 94 74 278 218 207 220 218 221 246 260 261 255 249 259 267 276 290 286 245 233 223 216 213 210 220 237 249 250
199 197 179 170 168 167 172 165 144 150 164 170 150 127 128 146 200 240 249 236 299 290 261 245 248 256 267 257 252 256 251 251 250 238 231 225 222 216 203 207 221 229 246 249
179 166 156 153 154 150 153 156 155 156 151 138 138 172 196 208 217 229 225 187 212 270 271 263 254 247 255 254 258 247 249 252 256 256 239 229 234 222 210 212 228 236 237 240
85 117 138 142 137 147 158 163 149 156 169 158 161 187 231 239 229 220 215 230 237 237 247 258 257 252 251 253 259 245 244 241 240 256 255 240 235 233 221 216 219 227 237 240
78 73 95 108 127 145 163 162 155 185 196 183 186 207 227 241 236 214 213 266 274 258 257 259 256 256 253 253 261 250 247 250 242 233 238 251 256 251 240 233 232 234 236 238
58 69 78 189 182 198 206 174 183 193 194 204 210 215 221 238 252 254 244 241 254 258 260 257 257 259 262 262 258 261 251 236 227 218 222 238 237 242 253 253 243 243 241 237
271 240 247 224 206 215 202 197 213 197 193 207 214 217 217 224 223 220 257 262 255 255 254 254 264 267 268 270 261 253 250 238 226 225 233 236 231 221 234 246 251 258 252 253
267 259 237 212 173 157 191 249 244 223 207 222 233 227 222 232 260 249 232 242 240 242 252 266 271 270 270 289 286 274 251 239 234 230 225 221 226 201 189 200 236 259 257 258
271 254 252 176 172 203 216 238 259 261 251 267 267 258 244 223 232 256 255 249 216 208 261 276 271 263 258 326 300 275 247 231 221 208 216 230 235 220 205 206 225 249 253 254
272 248 228 214 211 209 203 192 216 248 229 219 279 284 284 281 252 243 246 228 215 218 232 261 273 269 259 249 250 258 259 258 242 232 224 222 226 223 225 229 250 250 256 272
283 263 242 297 292 247 205 190 203 230 232 215 229 257 259 270 270 264 262 260 253 245 249 256 256 251 247 251 262 265 257 251 244 238 238 233 236 243 246 230 218 229 253 296